Time,TemperatureF,DewpointF,PressureIn,WindDirection,WindDirectionDegrees,WindSpeedMPH,WindSpeedGustMPH,Humidity,HourlyPrecipIn,Conditions,Clouds,dailyrainin,SoftwareType,DateUTC
2013-07-23 00:01:00,59.0,51.2,29.91,West,279,0.0,0.0,75,0.00,,,0.00,WUHU216DAVISVP2,2013-07-23 05:01:00,
2013-07-23 00:06:00,58.7,50.9,29.91,West,279,0.0,0.0,75,0.00,,,0.00,WUHU216DAVISVP2,2013-07-23 05:06:00,
2013-07-23 00:11:00,58.6,50.8,29.91,West,279,0.0,0.0,75,0.00,,,0.00,WUHU216DAVISVP2,2013-07-23 05:11:00,
2013-07-23 00:16:00,58.3,50.5,29.91,West,279,0.0,0.0,75,0.00,,,0.00,WUHU216DAVISVP2,2013-07-23 05:16:00,
2013-07-23 00:21:00,58.2,50.8,29.92,West,279,0.0,0.0,76,0.00,,,0.00,WUHU216DAVISVP2,2013-07-23 05:21:00,
2013-07-23 00:26:00,58.2,50.8,29.91,West,279,0.0,0.0,76,0.00,,,0.00,WUHU216DAVISVP2,2013-07-23 05:26:00,
2013-07-23 00:31:00,58.1,50.7,29.92,West,279,0.0,0.0,76,0.00,,,0.00,WUHU216DAVISVP2,2013-07-23 05:31:00,
2013-07-23 00:36:00,58.1,50.7,29.92,West,279,0.0,0.0,76,0.00,,,0.00,WUHU216DAVISVP2,2013-07-23 05:36:00,
2013-07-23 00:41:00,58.0,50.6,29.93,West,279,0.0,0.0,76,0.00,,,0.00,WUHU216DAVISVP2,2013-07-23 05:41:00,
2013-07-23 00:46:00,57.9,50.5,29.93,West,279,0.0,0.0,76,0.00,,,0.00,WUHU216DAVISVP2,2013-07-23 05:46:00,
2013-07-23 00:51:00,57.8,50.4,29.92,West,279,0.0,0.0,76,0.00,,,0.00,WUHU216DAVISVP2,2013-07-23 05:51:00,
2013-07-23 00:56:00,57.8,50.7,29.92,West,279,0.0,0.0,77,0.00,,,0.00,WUHU216DAVISVP2,2013-07-23 05:56:00,
2013-07-23 01:01:00,57.7,50.3,29.92,West,279,0.0,0.0,76,0.00,,,0.00,WUHU216DAVISVP2,2013-07-23 06:01:00,
2013-07-23 01:06:00,57.7,50.6,29.92,West,279,0.0,0.0,77,0.00,,,0.00,WUHU216DAVISVP2,2013-07-23 06:06:00,
2013-07-23 01:11:00,57.6,50.5,29.92,West,279,0.0,0.0,77,0.00,,,0.00,WUHU216DAVISVP2,2013-07-23 06:11:00,
2013-07-23 01:16:00,57.4,50.3,29.92,West,279,0.0,0.0,77,0.00,,,0.00,WUHU216DAVISVP2,2013-07-23 06:16:00,
2013-07-23 01:21:00,57.3,50.6,29.92,West,279,0.0,0.0,78,0.00,,,0.00,WUHU216DAVISVP2,2013-07-23 06:21:00,
2013-07-23 01:26:00,57.2,50.5,29.92,West,279,0.0,0.0,78,0.00,,,0.00,WUHU216DAVISVP2,2013-07-23 06:26:00,
2013-07-23 01:31:00,57.3,50.6,29.92,West,279,0.0,0.0,78,0.00,,,0.00,WUHU216DAVISVP2,2013-07-23 06:31:00,
2013-07-23 01:36:00,57.3,50.2,29.92,West,281,0.0,0.0,77,0.00,,,0.00,WUHU216DAVISVP2,2013-07-23 06:36:00,
2013-07-23 01:41:00,57.2,50.1,29.92,West,281,0.0,0.0,77,0.00,,,0.00,WUHU216DAVISVP2,2013-07-23 06:41:00,
2013-07-23 01:46:00,57.1,50.0,29.92,West,280,0.0,0.0,77,0.00,,,0.00,WUHU216DAVISVP2,2013-07-23 06:46:00,
2013-07-23 01:51:00,57.0,49.9,29.92,West,281,0.0,0.0,77,0.00,,,0.00,WUHU216DAVISVP2,2013-07-23 06:51:00,
2013-07-23 01:56:00,56.9,49.8,29.93,West,280,0.0,0.0,77,0.00,,,0.00,WUHU216DAVISVP2,2013-07-23 06:56:00,
2013-07-23 02:01:00,56.7,49.6,29.93,West,280,0.0,0.0,77,0.00,,,0.00,WUHU216DAVISVP2,2013-07-23 07:01:00,
2013-07-23 02:06:00,56.6,49.9,29.93,West,280,0.0,0.0,78,0.00,,,0.00,WUHU216DAVISVP2,2013-07-23 07:06:00,
2013-07-23 02:11:00,56.4,49.7,29.93,West,281,0.0,0.0,78,0.00,,,0.00,WUHU216DAVISVP2,2013-07-23 07:11:00,
2013-07-23 02:16:00,56.4,50.0,29.93,West,281,0.0,0.0,79,0.00,,,0.00,WUHU216DAVISVP2,2013-07-23 07:16:00,
2013-07-23 02:21:00,56.4,50.0,29.93,West,280,0.0,0.0,79,0.00,,,0.00,WUHU216DAVISVP2,2013-07-23 07:21:00,
2013-07-23 02:26:00,56.3,49.9,29.93,West,281,0.0,0.0,79,0.00,,,0.00,WUHU216DAVISVP2,2013-07-23 07:26:00,
2013-07-23 02:31:00,56.1,49.7,29.93,West,281,0.0,0.0,79,0.00,,,0.00,WUHU216DAVISVP2,2013-07-23 07:31:00,
2013-07-23 02:36:00,56.0,49.6,29.93,West,280,0.0,0.0,79,0.00,,,0.00,WUHU216DAVISVP2,2013-07-23 07:36:00,
2013-07-23 02:41:00,55.9,49.5,29.93,West,281,0.0,0.0,79,0.00,,,0.00,WUHU216DAVISVP2,2013-07-23 07:41:00,
2013-07-23 02:46:00,55.8,49.4,29.92,West,281,0.0,0.0,79,0.00,,,0.00,WUHU216DAVISVP2,2013-07-23 07:46:00,
2013-07-23 02:51:00,55.7,49.3,29.92,West,280,0.0,0.0,79,0.00,,,0.00,WUHU216DAVISVP2,2013-07-23 07:51:00,
2013-07-23 02:56:00,55.5,49.1,29.93,West,281,0.0,0.0,79,0.00,,,0.00,WUHU216DAVISVP2,2013-07-23 07:56:00,
2013-07-23 03:01:00,55.2,49.2,29.93,West,281,0.0,0.0,80,0.00,,,0.00,WUHU216DAVISVP2,2013-07-23 08:01:00,
2013-07-23 03:06:00,55.0,49.0,29.93,West,280,0.0,0.0,80,0.00,,,0.00,WUHU216DAVISVP2,2013-07-23 08:06:00,
2013-07-23 03:11:00,54.8,48.8,29.92,West,281,0.0,0.0,80,0.00,,,0.00,WUHU216DAVISVP2,2013-07-23 08:11:00,
2013-07-23 03:16:00,54.6,48.9,29.93,West,281,0.0,0.0,81,0.00,,,0.00,WUHU216DAVISVP2,2013-07-23 08:16:00,
2013-07-23 03:21:00,54.5,48.8,29.93,West,280,0.0,0.0,81,0.00,,,0.00,WUHU216DAVISVP2,2013-07-23 08:21:00,
2013-07-23 03:26:00,54.4,48.7,29.93,West,281,0.0,0.0,81,0.00,,,0.00,WUHU216DAVISVP2,2013-07-23 08:26:00,
2013-07-23 03:31:00,54.3,48.9,29.93,West,281,0.0,0.0,82,0.00,,,0.00,WUHU216DAVISVP2,2013-07-23 08:31:00,
2013-07-23 03:36:00,54.2,48.5,29.93,West,280,0.0,0.0,81,0.00,,,0.00,WUHU216DAVISVP2,2013-07-23 08:36:00,
2013-07-23 03:41:00,54.2,48.8,29.93,West,281,0.0,0.0,82,0.00,,,0.00,WUHU216DAVISVP2,2013-07-23 08:41:00,
2013-07-23 03:46:00,54.4,49.0,29.92,West,281,0.0,0.0,82,0.00,,,0.00,WUHU216DAVISVP2,2013-07-23 08:46:00,
2013-07-23 03:51:00,54.6,49.2,29.92,West,281,0.0,0.0,82,0.00,,,0.00,WUHU216DAVISVP2,2013-07-23 08:51:00,
2013-07-23 03:56:00,54.7,49.0,29.92,WNW,295,0.0,0.0,81,0.00,,,0.00,WUHU216DAVISVP2,2013-07-23 08:56:00,
2013-07-23 04:01:00,55.0,49.3,29.92,WNW,295,0.0,0.0,81,0.00,,,0.00,WUHU216DAVISVP2,2013-07-23 09:01:00,
2013-07-23 04:06:00,55.1,49.4,29.92,WNW,296,0.0,0.0,81,0.00,,,0.00,WUHU216DAVISVP2,2013-07-23 09:06:00,
2013-07-23 04:11:00,55.0,49.3,29.91,WNW,300,0.0,0.0,81,0.00,,,0.00,WUHU216DAVISVP2,2013-07-23 09:11:00,
2013-07-23 04:16:00,55.0,49.0,29.92,WNW,299,0.0,0.0,80,0.00,,,0.00,WUHU216DAVISVP2,2013-07-23 09:16:00,
2013-07-23 04:21:00,54.9,49.2,29.92,WNW,299,0.0,0.0,81,0.00,,,0.00,WUHU216DAVISVP2,2013-07-23 09:21:00,
2013-07-23 04:26:00,54.8,49.1,29.92,WNW,299,0.0,0.0,81,0.00,,,0.00,WUHU216DAVISVP2,2013-07-23 09:26:00,
2013-07-23 04:31:00,54.7,49.0,29.93,WNW,299,0.0,0.0,81,0.00,,,0.00,WUHU216DAVISVP2,2013-07-23 09:31:00,
2013-07-23 04:36:00,54.5,48.8,29.93,WNW,299,0.0,0.0,81,0.00,,,0.00,WUHU216DAVISVP2,2013-07-23 09:36:00,
2013-07-23 04:41:00,54.3,48.6,29.94,WNW,300,0.0,0.0,81,0.00,,,0.00,WUHU216DAVISVP2,2013-07-23 09:41:00,
2013-07-23 04:46:00,54.0,48.7,29.93,WNW,300,0.0,0.0,82,0.00,,,0.00,WUHU216DAVISVP2,2013-07-23 09:46:00,
2013-07-23 04:51:00,53.9,48.6,29.94,WNW,299,0.0,0.0,82,0.00,,,0.00,WUHU216DAVISVP2,2013-07-23 09:51:00,
2013-07-23 04:56:00,53.7,48.4,29.94,WNW,300,0.0,0.0,82,0.00,,,0.00,WUHU216DAVISVP2,2013-07-23 09:56:00,
2013-07-23 05:01:00,53.5,48.2,29.94,WNW,300,0.0,0.0,82,0.00,,,0.00,WUHU216DAVISVP2,2013-07-23 10:01:00,
2013-07-23 05:06:00,53.4,48.1,29.95,WNW,299,0.0,0.0,82,0.00,,,0.00,WUHU216DAVISVP2,2013-07-23 10:06:00,
2013-07-23 05:11:00,53.2,48.2,29.94,WNW,299,0.0,0.0,83,0.00,,,0.00,WUHU216DAVISVP2,2013-07-23 10:11:00,
2013-07-23 05:16:00,53.1,48.1,29.95,WNW,299,0.0,0.0,83,0.00,,,0.00,WUHU216DAVISVP2,2013-07-23 10:16:00,
2013-07-23 05:21:00,53.2,48.5,29.95,WNW,299,0.0,0.0,84,0.00,,,0.00,WUHU216DAVISVP2,2013-07-23 10:21:00,
2013-07-23 05:26:00,53.4,48.7,29.95,WNW,299,0.0,0.0,84,0.00,,,0.00,WUHU216DAVISVP2,2013-07-23 10:26:00,
2013-07-23 05:31:00,53.3,48.3,29.95,WNW,299,0.0,0.0,83,0.00,,,0.00,WUHU216DAVISVP2,2013-07-23 10:31:00,
2013-07-23 05:36:00,53.2,48.5,29.95,WNW,299,0.0,0.0,84,0.00,,,0.00,WUHU216DAVISVP2,2013-07-23 10:36:00,
2013-07-23 05:41:00,53.1,48.4,29.95,WNW,300,0.0,0.0,84,0.00,,,0.00,WUHU216DAVISVP2,2013-07-23 10:41:00,
2013-07-23 05:46:00,53.0,48.3,29.95,WNW,299,0.0,0.0,84,0.00,,,0.00,WUHU216DAVISVP2,2013-07-23 10:46:00,
2013-07-23 05:51:00,52.9,48.2,29.95,WNW,299,0.0,0.0,84,0.00,,,0.00,WUHU216DAVISVP2,2013-07-23 10:51:00,
2013-07-23 05:56:00,52.8,48.1,29.95,WNW,300,0.0,0.0,84,0.00,,,0.00,WUHU216DAVISVP2,2013-07-23 10:56:00,
2013-07-23 06:01:00,52.6,47.9,29.96,WNW,300,0.0,0.0,84,0.00,,,0.00,WUHU216DAVISVP2,2013-07-23 11:01:00,
2013-07-23 06:06:00,52.5,47.8,29.97,WNW,300,0.0,0.0,84,0.00,,,0.00,WUHU216DAVISVP2,2013-07-23 11:06:00,
2013-07-23 06:11:00,52.5,47.8,29.97,WNW,299,0.0,0.0,84,0.00,,,0.00,WUHU216DAVISVP2,2013-07-23 11:11:00,
2013-07-23 06:16:00,52.4,47.7,29.97,WNW,299,0.0,0.0,84,0.00,,,0.00,WUHU216DAVISVP2,2013-07-23 11:16:00,
2013-07-23 06:21:00,52.3,47.6,29.97,WNW,300,0.0,0.0,84,0.00,,,0.00,WUHU216DAVISVP2,2013-07-23 11:21:00,
2013-07-23 06:26:00,52.2,47.5,29.97,WNW,300,0.0,0.0,84,0.00,,,0.00,WUHU216DAVISVP2,2013-07-23 11:26:00,
2013-07-23 06:31:00,52.3,47.6,29.98,WNW,299,0.0,0.0,84,0.00,,,0.00,WUHU216DAVISVP2,2013-07-23 11:31:00,
2013-07-23 06:36:00,52.3,47.9,29.98,WNW,300,0.0,0.0,85,0.00,,,0.00,WUHU216DAVISVP2,2013-07-23 11:36:00,
2013-07-23 06:42:00,52.5,48.1,29.98,WNW,300,0.0,0.0,85,0.00,,,0.00,WUHU216DAVISVP2,2013-07-23 11:42:00,
2013-07-23 06:46:00,52.6,48.2,29.98,WNW,299,0.0,0.0,85,0.00,,,0.00,WUHU216DAVISVP2,2013-07-23 11:46:00,
2013-07-23 06:51:00,52.9,48.5,29.98,WNW,299,0.0,0.0,85,0.00,,,0.00,WUHU216DAVISVP2,2013-07-23 11:51:00,
2013-07-23 06:56:00,53.2,48.8,29.98,WNW,300,0.0,0.0,85,0.00,,,0.00,WUHU216DAVISVP2,2013-07-23 11:56:00,
2013-07-23 07:02:00,53.4,49.0,29.99,WNW,300,0.0,0.0,85,0.00,,,0.00,WUHU216DAVISVP2,2013-07-23 12:02:00,
2013-07-23 07:06:00,53.6,49.2,29.99,WNW,299,0.0,0.0,85,0.00,,,0.00,WUHU216DAVISVP2,2013-07-23 12:06:00,
2013-07-23 07:12:00,53.8,49.1,29.99,WNW,300,0.0,0.0,84,0.00,,,0.00,WUHU216DAVISVP2,2013-07-23 12:12:00,
2013-07-23 07:17:00,54.1,49.4,29.99,WNW,299,0.0,0.0,84,0.00,,,0.00,WUHU216DAVISVP2,2013-07-23 12:17:00,
2013-07-23 07:22:00,54.2,49.5,29.99,WNW,299,0.0,0.0,84,0.00,,,0.00,WUHU216DAVISVP2,2013-07-23 12:22:00,
2013-07-23 07:27:00,54.5,49.8,29.99,WNW,299,0.0,0.0,84,0.00,,,0.00,WUHU216DAVISVP2,2013-07-23 12:27:00,
2013-07-23 07:32:00,54.7,49.7,29.99,WNW,299,0.0,1.0,83,0.00,,,0.00,WUHU216DAVISVP2,2013-07-23 12:32:00,
2013-07-23 07:37:00,55.0,49.9,30.00,WNW,300,0.0,1.0,83,0.00,,,0.00,WUHU216DAVISVP2,2013-07-23 12:37:00,
2013-07-23 07:42:00,55.2,50.1,30.00,WNW,299,0.0,0.0,83,0.00,,,0.00,WUHU216DAVISVP2,2013-07-23 12:42:00,
2013-07-23 07:47:00,55.5,50.1,30.00,WNW,299,0.0,0.0,82,0.00,,,0.00,WUHU216DAVISVP2,2013-07-23 12:47:00,
2013-07-23 07:52:00,55.8,50.4,30.00,WNW,300,0.0,0.0,82,0.00,,,0.00,WUHU216DAVISVP2,2013-07-23 12:52:00,
2013-07-23 07:57:00,56.1,50.4,30.00,WNW,302,0.0,2.0,81,0.00,,,0.00,WUHU216DAVISVP2,2013-07-23 12:57:00,
2013-07-23 08:02:00,56.3,50.6,30.00,NW,311,0.0,3.0,81,0.00,,,0.00,WUHU216DAVISVP2,2013-07-23 13:02:00,
2013-07-23 08:07:00,56.6,50.9,30.00,NW,312,0.0,4.0,81,0.00,,,0.00,WUHU216DAVISVP2,2013-07-23 13:07:00,
2013-07-23 08:12:00,56.8,50.7,30.00,NNE,22,0.0,4.0,80,0.00,,,0.00,WUHU216DAVISVP2,2013-07-23 13:12:00,
2013-07-23 08:17:00,57.1,51.0,30.00,NNE,22,0.0,0.0,80,0.00,,,0.00,WUHU216DAVISVP2,2013-07-23 13:17:00,
2013-07-23 08:22:00,57.5,51.4,30.00,NNE,22,0.0,0.0,80,0.00,,,0.00,WUHU216DAVISVP2,2013-07-23 13:22:00,
2013-07-23 08:27:00,58.1,51.7,30.00,North,11,0.0,4.0,79,0.00,,,0.00,WUHU216DAVISVP2,2013-07-23 13:27:00,
2013-07-23 08:32:00,58.6,51.8,30.00,NNE,12,0.0,4.0,78,0.00,,,0.00,WUHU216DAVISVP2,2013-07-23 13:32:00,
2013-07-23 08:37:00,59.0,52.2,30.00,WNW,298,0.0,1.0,78,0.00,,,0.00,WUHU216DAVISVP2,2013-07-23 13:37:00,
2013-07-23 08:42:00,59.0,51.9,30.00,WNW,298,0.0,1.0,77,0.00,,,0.00,WUHU216DAVISVP2,2013-07-23 13:42:00,
2013-07-23 08:47:00,59.5,52.0,30.00,North,5,3.0,4.0,76,0.00,,,0.00,WUHU216DAVISVP2,2013-07-23 13:47:00,
2013-07-23 08:52:00,60.0,52.5,30.01,North,5,0.0,4.0,76,0.00,,,0.00,WUHU216DAVISVP2,2013-07-23 13:52:00,
2013-07-23 08:57:00,60.6,53.1,30.01,NW,321,0.0,3.0,76,0.00,,,0.00,WUHU216DAVISVP2,2013-07-23 13:57:00,
2013-07-23 09:02:00,61.5,53.3,30.01,NW,321,0.0,3.0,74,0.00,,,0.00,WUHU216DAVISVP2,2013-07-23 14:02:00,
2013-07-23 09:07:00,62.4,53.8,30.01,NW,321,0.0,1.0,73,0.00,,,0.00,WUHU216DAVISVP2,2013-07-23 14:07:00,
2013-07-23 09:12:00,63.1,53.7,30.01,NW,319,0.0,1.0,71,0.00,,,0.00,WUHU216DAVISVP2,2013-07-23 14:12:00,
2013-07-23 09:17:00,63.2,53.4,30.01,NW,313,0.0,1.0,70,0.00,,,0.00,WUHU216DAVISVP2,2013-07-23 14:17:00,
2013-07-23 09:22:00,62.3,52.5,30.01,NNE,25,0.0,3.0,70,0.00,,,0.00,WUHU216DAVISVP2,2013-07-23 14:22:00,
2013-07-23 09:27:00,61.9,52.5,30.01,NNE,26,0.0,4.0,71,0.00,,,0.00,WUHU216DAVISVP2,2013-07-23 14:27:00,
2013-07-23 09:32:00,62.0,53.0,30.00,NNE,13,0.0,5.0,72,0.00,,,0.00,WUHU216DAVISVP2,2013-07-23 14:32:00,
2013-07-23 09:37:00,62.8,53.4,30.00,NNE,13,0.0,5.0,71,0.00,,,0.00,WUHU216DAVISVP2,2013-07-23 14:37:00,
2013-07-23 09:42:00,63.2,53.8,30.00,North,5,0.0,5.0,71,0.00,,,0.00,WUHU216DAVISVP2,2013-07-23 14:42:00,
2013-07-23 09:47:00,63.6,53.4,30.01,North,5,0.0,5.0,69,0.00,,,0.00,WUHU216DAVISVP2,2013-07-23 14:47:00,
2013-07-23 09:52:00,64.6,54.4,30.01,North,360,0.0,0.0,69,0.00,,,0.00,WUHU216DAVISVP2,2013-07-23 14:52:00,
2013-07-23 09:57:00,65.3,54.2,30.01,North,360,0.0,0.0,67,0.00,,,0.00,WUHU216DAVISVP2,2013-07-23 14:57:00,
2013-07-23 10:02:00,65.2,54.1,30.01,North,5,4.0,4.0,67,0.00,,,0.00,WUHU216DAVISVP2,2013-07-23 15:02:00,
2013-07-23 10:07:00,65.4,53.9,30.01,North,5,0.0,4.0,66,0.00,,,0.00,WUHU216DAVISVP2,2013-07-23 15:07:00,
2013-07-23 10:12:00,65.8,54.7,30.01,North,355,0.0,3.0,67,0.00,,,0.00,WUHU216DAVISVP2,2013-07-23 15:12:00,
2013-07-23 10:17:00,65.9,54.0,30.00,North,355,0.0,1.0,65,0.00,,,0.00,WUHU216DAVISVP2,2013-07-23 15:17:00,
2013-07-23 10:22:00,65.5,54.4,30.01,North,355,0.0,2.0,67,0.00,,,0.00,WUHU216DAVISVP2,2013-07-23 15:22:00,
2013-07-23 10:27:00,66.2,54.7,30.01,North,355,0.0,2.0,66,0.00,,,0.00,WUHU216DAVISVP2,2013-07-23 15:27:00,
2013-07-23 10:32:00,66.7,54.3,30.01,North,355,0.0,2.0,64,0.00,,,0.00,WUHU216DAVISVP2,2013-07-23 15:32:00,
2013-07-23 10:37:00,66.8,54.8,30.01,North,355,0.0,5.0,65,0.00,,,0.00,WUHU216DAVISVP2,2013-07-23 15:37:00,
2013-07-23 10:42:00,67.4,54.5,30.01,North,355,0.0,5.0,63,0.00,,,0.00,WUHU216DAVISVP2,2013-07-23 15:42:00,
2013-07-23 10:47:00,67.1,52.9,30.01,North,360,0.0,4.0,60,0.00,,,0.00,WUHU216DAVISVP2,2013-07-23 15:47:00,
2013-07-23 10:52:00,67.4,52.7,30.01,North,360,0.0,4.0,59,0.00,,,0.00,WUHU216DAVISVP2,2013-07-23 15:52:00,
2013-07-23 10:57:00,67.6,53.8,30.01,North,360,0.0,4.0,61,0.00,,,0.00,WUHU216DAVISVP2,2013-07-23 15:57:00,
2013-07-23 11:02:00,68.5,54.7,30.01,North,360,0.0,1.0,61,0.00,,,0.00,WUHU216DAVISVP2,2013-07-23 16:02:00,
2013-07-23 11:07:00,68.5,54.2,30.01,NNE,15,0.0,7.0,60,0.00,,,0.00,WUHU216DAVISVP2,2013-07-23 16:07:00,
2013-07-23 11:12:00,69.0,54.7,30.01,NNE,15,0.0,7.0,60,0.00,,,0.00,WUHU216DAVISVP2,2013-07-23 16:12:00,
2013-07-23 11:17:00,68.3,53.1,30.01,NNE,13,0.0,7.0,58,0.00,,,0.00,WUHU216DAVISVP2,2013-07-23 16:17:00,
2013-07-23 11:22:00,68.6,53.4,30.01,NNE,13,0.0,7.0,58,0.00,,,0.00,WUHU216DAVISVP2,2013-07-23 16:22:00,
2013-07-23 11:27:00,68.6,52.4,30.01,NNE,14,0.0,7.0,56,0.00,,,0.00,WUHU216DAVISVP2,2013-07-23 16:27:00,
2013-07-23 11:32:00,69.1,51.9,30.01,WNW,300,0.0,7.0,54,0.00,,,0.00,WUHU216DAVISVP2,2013-07-23 16:32:00,
2013-07-23 11:37:00,69.6,53.8,30.01,WNW,298,2.0,4.0,57,0.00,,,0.00,WUHU216DAVISVP2,2013-07-23 16:37:00,
2013-07-23 11:42:00,69.9,53.1,30.01,WNW,301,0.0,4.0,55,0.00,,,0.00,WUHU216DAVISVP2,2013-07-23 16:42:00,
2013-07-23 11:47:00,69.8,54.0,30.01,NNE,26,0.0,7.0,57,0.00,,,0.00,WUHU216DAVISVP2,2013-07-23 16:47:00,
2013-07-23 11:52:00,70.5,53.7,30.01,NNE,22,0.0,7.0,55,0.00,,,0.00,WUHU216DAVISVP2,2013-07-23 16:52:00,
2013-07-23 11:57:00,71.2,53.8,30.01,East,96,1.0,3.0,54,0.00,,,0.00,WUHU216DAVISVP2,2013-07-23 16:57:00,
2013-07-23 12:02:00,71.1,53.7,30.01,East,88,0.0,3.0,54,0.00,,,0.00,WUHU216DAVISVP2,2013-07-23 17:02:00,
2013-07-23 12:07:00,71.1,52.7,30.01,ENE,64,0.0,2.0,52,0.00,,,0.00,WUHU216DAVISVP2,2013-07-23 17:07:00,
2013-07-23 12:12:00,70.4,52.6,30.01,North,355,0.0,6.0,53,0.00,,,0.00,WUHU216DAVISVP2,2013-07-23 17:12:00,
2013-07-23 12:17:00,70.6,54.3,30.01,North,355,0.0,6.0,56,0.00,,,0.00,WUHU216DAVISVP2,2013-07-23 17:17:00,
2013-07-23 12:22:00,71.3,53.4,30.01,North,360,0.0,1.0,53,0.00,,,0.00,WUHU216DAVISVP2,2013-07-23 17:22:00,
2013-07-23 12:27:00,71.9,54.0,30.01,NNW,344,0.0,4.0,53,0.00,,,0.00,WUHU216DAVISVP2,2013-07-23 17:27:00,
2013-07-23 12:32:00,72.6,54.1,30.02,NNW,333,0.0,4.0,52,0.00,,,0.00,WUHU216DAVISVP2,2013-07-23 17:32:00,
2013-07-23 12:37:00,72.8,54.3,30.02,NW,325,1.0,4.0,52,0.00,,,0.00,WUHU216DAVISVP2,2013-07-23 17:37:00,
2013-07-23 12:42:00,72.0,54.6,30.02,NW,320,0.0,4.0,54,0.00,,,0.00,WUHU216DAVISVP2,2013-07-23 17:42:00,
2013-07-23 12:47:00,72.1,54.1,30.01,NW,315,0.0,3.0,53,0.00,,,0.00,WUHU216DAVISVP2,2013-07-23 17:47:00,
2013-07-23 12:52:00,72.3,53.8,30.02,NW,315,0.0,3.0,52,0.00,,,0.00,WUHU216DAVISVP2,2013-07-23 17:52:00,
2013-07-23 12:57:00,71.9,54.0,30.02,NW,325,0.0,5.0,53,0.00,,,0.00,WUHU216DAVISVP2,2013-07-23 17:57:00,
2013-07-23 13:02:00,72.0,53.5,30.01,NNW,333,0.0,5.0,52,0.00,,,0.00,WUHU216DAVISVP2,2013-07-23 18:02:00,
2013-07-23 13:07:00,72.1,53.6,30.01,NNW,333,0.0,3.0,52,0.00,,,0.00,WUHU216DAVISVP2,2013-07-23 18:07:00,
2013-07-23 13:12:00,72.2,53.2,30.01,NNW,348,0.0,5.0,51,0.00,,,0.00,WUHU216DAVISVP2,2013-07-23 18:12:00,
2013-07-23 13:17:00,72.3,52.7,30.01,NNW,345,0.0,5.0,50,0.00,,,0.00,WUHU216DAVISVP2,2013-07-23 18:17:00,
2013-07-23 13:22:00,72.6,52.4,30.01,NNW,346,0.0,3.0,49,0.00,,,0.00,WUHU216DAVISVP2,2013-07-23 18:22:00,
2013-07-23 13:27:00,73.1,52.9,30.01,NNW,345,0.0,2.0,49,0.00,,,0.00,WUHU216DAVISVP2,2013-07-23 18:27:00,
2013-07-23 13:32:00,72.6,51.8,30.01,North,360,0.0,4.0,48,0.00,,,0.00,WUHU216DAVISVP2,2013-07-23 18:32:00,
2013-07-23 13:38:00,72.4,52.2,30.01,North,360,4.0,5.0,49,0.00,,,0.00,WUHU216DAVISVP2,2013-07-23 18:38:00,
2013-07-23 13:43:00,72.2,52.0,30.01,North,11,0.0,5.0,49,0.00,,,0.00,WUHU216DAVISVP2,2013-07-23 18:43:00,
2013-07-23 13:48:00,72.1,51.4,30.01,NNE,13,0.0,6.0,48,0.00,,,0.00,WUHU216DAVISVP2,2013-07-23 18:48:00,
2013-07-23 13:53:00,72.9,52.1,30.01,NNE,26,4.0,6.0,48,0.00,,,0.00,WUHU216DAVISVP2,2013-07-23 18:53:00,
2013-07-23 13:58:00,72.8,52.6,30.01,NNE,26,0.0,6.0,49,0.00,,,0.00,WUHU216DAVISVP2,2013-07-23 18:58:00,
2013-07-23 14:04:00,73.3,53.6,30.01,NNE,19,0.0,4.0,50,0.00,,,0.00,WUHU216DAVISVP2,2013-07-23 19:04:00,
2013-07-23 14:09:00,72.9,53.8,30.01,NNE,19,0.0,4.0,51,0.00,,,0.00,WUHU216DAVISVP2,2013-07-23 19:09:00,
2013-07-23 14:14:00,72.7,54.2,30.01,NNE,19,0.0,3.0,52,0.00,,,0.00,WUHU216DAVISVP2,2013-07-23 19:14:00,
2013-07-23 14:19:00,72.9,53.2,30.01,North,5,0.0,4.0,50,0.00,,,0.00,WUHU216DAVISVP2,2013-07-23 19:19:00,
2013-07-23 14:24:00,72.6,53.0,30.01,NE,34,3.0,4.0,50,0.00,,,0.00,WUHU216DAVISVP2,2013-07-23 19:24:00,
2013-07-23 14:29:00,72.1,53.1,30.01,NE,47,2.0,4.0,51,0.00,,,0.00,WUHU216DAVISVP2,2013-07-23 19:29:00,
2013-07-23 14:34:00,71.9,52.9,30.01,NNE,23,1.0,4.0,51,0.00,,,0.00,WUHU216DAVISVP2,2013-07-23 19:34:00,
2013-07-23 14:39:00,72.1,53.6,30.01,NW,306,0.0,4.0,52,0.00,,,0.00,WUHU216DAVISVP2,2013-07-23 19:39:00,
2013-07-23 14:44:00,72.7,52.5,30.01,NNE,15,0.0,5.0,49,0.00,,,0.00,WUHU216DAVISVP2,2013-07-23 19:44:00,
2013-07-23 14:49:00,73.0,52.8,30.01,NNE,30,0.0,7.0,49,0.00,,,0.00,WUHU216DAVISVP2,2013-07-23 19:49:00,
2013-07-23 14:54:00,73.2,53.5,30.01,NNW,341,0.0,7.0,50,0.00,,,0.00,WUHU216DAVISVP2,2013-07-23 19:54:00,
2013-07-23 14:59:00,73.6,52.7,30.01,NNE,23,4.0,5.0,48,0.00,,,0.00,WUHU216DAVISVP2,2013-07-23 19:59:00,
2013-07-23 15:04:00,73.9,52.4,30.01,NNE,16,0.0,5.0,47,0.00,,,0.00,WUHU216DAVISVP2,2013-07-23 20:04:00,
2013-07-23 15:09:00,73.5,50.8,30.01,NNE,33,0.0,4.0,45,0.00,,,0.00,WUHU216DAVISVP2,2013-07-23 20:09:00,
2013-07-23 15:14:00,74.0,52.5,30.01,NNE,32,0.0,4.0,47,0.00,,,0.00,WUHU216DAVISVP2,2013-07-23 20:14:00,
2013-07-23 15:20:00,74.9,53.9,30.01,West,271,2.0,5.0,48,0.00,,,0.00,WUHU216DAVISVP2,2013-07-23 20:20:00,
2013-07-23 15:25:00,75.6,52.1,30.01,NNW,334,0.0,10.0,44,0.00,,,0.00,WUHU216DAVISVP2,2013-07-23 20:25:00,
2013-07-23 15:30:00,75.1,52.3,30.00,WSW,253,0.0,10.0,45,0.00,,,0.00,WUHU216DAVISVP2,2013-07-23 20:30:00,
2013-07-23 15:35:00,75.8,54.2,30.00,West,270,0.0,7.0,47,0.00,,,0.00,WUHU216DAVISVP2,2013-07-23 20:35:00,
2013-07-23 15:40:00,74.8,53.8,30.00,West,275,0.0,4.0,48,0.00,,,0.00,WUHU216DAVISVP2,2013-07-23 20:40:00,
2013-07-23 15:46:00,74.2,53.3,30.00,NNE,30,0.0,5.0,48,0.00,,,0.00,WUHU216DAVISVP2,2013-07-23 20:46:00,
2013-07-23 15:51:00,74.2,53.3,30.00,West,273,0.0,5.0,48,0.00,,,0.00,WUHU216DAVISVP2,2013-07-23 20:51:00,
2013-07-23 15:56:00,74.9,52.7,30.00,North,355,0.0,4.0,46,0.00,,,0.00,WUHU216DAVISVP2,2013-07-23 20:56:00,
2013-07-23 16:01:00,75.2,54.8,30.00,WNW,299,0.0,3.0,49,0.00,,,0.00,WUHU216DAVISVP2,2013-07-23 21:01:00,
2013-07-23 16:06:00,75.7,55.3,30.00,WNW,285,0.0,3.0,49,0.00,,,0.00,WUHU216DAVISVP2,2013-07-23 21:06:00,
2013-07-23 16:11:00,75.9,54.9,30.00,WNW,285,0.0,3.0,48,0.00,,,0.00,WUHU216DAVISVP2,2013-07-23 21:11:00,
2013-07-23 16:17:00,76.5,55.4,30.00,NNE,19,2.0,5.0,48,0.00,,,0.00,WUHU216DAVISVP2,2013-07-23 21:17:00,
2013-07-23 16:22:00,75.8,54.2,30.00,WNW,288,0.0,7.0,47,0.00,,,0.00,WUHU216DAVISVP2,2013-07-23 21:22:00,
2013-07-23 16:27:00,76.2,53.9,30.00,WNW,292,0.0,5.0,46,0.00,,,0.00,WUHU216DAVISVP2,2013-07-23 21:27:00,
2013-07-23 16:32:00,75.7,54.7,30.00,NW,306,0.0,2.0,48,0.00,,,0.00,WUHU216DAVISVP2,2013-07-23 21:32:00,
2013-07-23 16:37:00,76.0,54.3,30.00,NNE,13,5.0,6.0,47,0.00,,,0.00,WUHU216DAVISVP2,2013-07-23 21:37:00,
2013-07-23 16:42:00,75.2,54.2,30.00,NNE,14,0.0,6.0,48,0.00,,,0.00,WUHU216DAVISVP2,2013-07-23 21:42:00,
2013-07-23 16:47:00,74.5,53.6,30.00,North,360,0.0,7.0,48,0.00,,,0.00,WUHU216DAVISVP2,2013-07-23 21:47:00,
2013-07-23 16:52:00,74.2,53.9,29.99,NNE,24,1.0,7.0,49,0.00,,,0.00,WUHU216DAVISVP2,2013-07-23 21:52:00,
2013-07-23 16:57:00,74.3,54.5,29.99,WNW,295,2.0,4.0,50,0.00,,,0.00,WUHU216DAVISVP2,2013-07-23 21:57:00,
2013-07-23 17:02:00,74.1,54.4,29.99,NNE,17,6.0,10.0,50,0.00,,,0.00,WUHU216DAVISVP2,2013-07-23 22:02:00,
2013-07-23 17:07:00,73.6,54.4,29.99,NNE,14,0.0,10.0,51,0.00,,,0.00,WUHU216DAVISVP2,2013-07-23 22:07:00,
2013-07-23 17:12:00,73.5,54.4,29.99,NNE,26,0.0,5.0,51,0.00,,,0.00,WUHU216DAVISVP2,2013-07-23 22:12:00,
2013-07-23 17:17:00,73.6,53.9,29.99,North,10,1.0,9.0,50,0.00,,,0.00,WUHU216DAVISVP2,2013-07-23 22:17:00,
2013-07-23 17:23:00,73.5,54.4,29.98,NNE,19,1.0,9.0,51,0.00,,,0.00,WUHU216DAVISVP2,2013-07-23 22:23:00,
2013-07-23 17:28:00,74.1,54.9,29.98,NNE,19,1.0,6.0,51,0.00,,,0.00,WUHU216DAVISVP2,2013-07-23 22:28:00,
2013-07-23 17:33:00,74.2,54.4,29.99,NW,314,2.0,4.0,50,0.00,,,0.00,WUHU216DAVISVP2,2013-07-23 22:33:00,
2013-07-23 17:38:00,74.2,53.9,29.99,North,360,0.0,5.0,49,0.00,,,0.00,WUHU216DAVISVP2,2013-07-23 22:38:00,
2013-07-23 17:43:00,74.1,53.8,29.98,North,360,0.0,7.0,49,0.00,,,0.00,WUHU216DAVISVP2,2013-07-23 22:43:00,
2013-07-23 17:48:00,74.4,54.6,29.98,North,5,0.0,7.0,50,0.00,,,0.00,WUHU216DAVISVP2,2013-07-23 22:48:00,
2013-07-23 17:53:00,74.3,53.4,29.98,NNE,13,0.0,7.0,48,0.00,,,0.00,WUHU216DAVISVP2,2013-07-23 22:53:00,
2013-07-23 17:58:00,73.8,52.9,29.98,NNE,13,0.0,5.0,48,0.00,,,0.00,WUHU216DAVISVP2,2013-07-23 22:58:00,
2013-07-23 18:04:00,73.7,53.4,29.98,NNE,19,0.0,5.0,49,0.00,,,0.00,WUHU216DAVISVP2,2013-07-23 23:04:00,
2013-07-23 18:09:00,73.8,53.5,29.98,NE,42,0.0,9.0,49,0.00,,,0.00,WUHU216DAVISVP2,2013-07-23 23:09:00,
2013-07-23 18:14:00,74.0,53.1,29.98,NNE,25,0.0,9.0,48,0.00,,,0.00,WUHU216DAVISVP2,2013-07-23 23:14:00,
2013-07-23 18:19:00,73.5,52.6,29.98,NNE,23,0.0,4.0,48,0.00,,,0.00,WUHU216DAVISVP2,2013-07-23 23:19:00,
2013-07-23 18:24:00,73.8,53.5,29.98,NNE,23,1.0,6.0,49,0.00,,,0.00,WUHU216DAVISVP2,2013-07-23 23:24:00,
2013-07-23 18:29:00,73.9,54.2,29.98,NNE,24,0.0,7.0,50,0.00,,,0.00,WUHU216DAVISVP2,2013-07-23 23:29:00,
2013-07-23 18:35:00,74.1,54.4,29.98,NNE,24,1.0,7.0,50,0.00,,,0.00,WUHU216DAVISVP2,2013-07-23 23:35:00,
2013-07-23 18:40:00,74.1,53.2,29.98,NNE,25,1.0,2.0,48,0.00,,,0.00,WUHU216DAVISVP2,2013-07-23 23:40:00,
2013-07-23 18:45:00,74.0,53.7,29.97,NNE,25,0.0,3.0,49,0.00,,,0.00,WUHU216DAVISVP2,2013-07-23 23:45:00,
2013-07-23 18:50:00,73.7,52.8,29.97,NNE,17,0.0,4.0,48,0.00,,,0.00,WUHU216DAVISVP2,2013-07-23 23:50:00,
2013-07-23 18:55:00,73.4,53.1,29.97,NNE,24,3.0,4.0,49,0.00,,,0.00,WUHU216DAVISVP2,2013-07-23 23:55:00,
2013-07-23 19:00:00,73.4,53.1,29.97,NNE,19,0.0,4.0,49,0.00,,,0.00,WUHU216DAVISVP2,2013-07-24 00:00:00,
2013-07-23 19:05:00,72.9,52.7,29.97,NNE,25,1.0,9.0,49,0.00,,,0.00,WUHU216DAVISVP2,2013-07-24 00:05:00,
2013-07-23 19:11:00,72.6,53.0,29.97,North,11,0.0,4.0,50,0.00,,,0.00,WUHU216DAVISVP2,2013-07-24 00:11:00,
2013-07-23 19:16:00,72.4,52.8,29.98,North,11,0.0,1.0,50,0.00,,,0.00,WUHU216DAVISVP2,2013-07-24 00:16:00,
2013-07-23 19:21:00,72.2,52.6,29.98,North,11,0.0,5.0,50,0.00,,,0.00,WUHU216DAVISVP2,2013-07-24 00:21:00,
2013-07-23 19:26:00,71.7,53.2,29.98,NE,36,0.0,5.0,52,0.00,,,0.00,WUHU216DAVISVP2,2013-07-24 00:26:00,
2013-07-23 19:32:00,71.5,53.0,29.98,NNE,19,0.0,3.0,52,0.00,,,0.00,WUHU216DAVISVP2,2013-07-24 00:32:00,
2013-07-23 19:37:00,71.4,52.4,29.98,NNE,22,0.0,1.0,51,0.00,,,0.00,WUHU216DAVISVP2,2013-07-24 00:37:00,
2013-07-23 19:42:00,71.3,52.9,29.98,NNE,21,0.0,0.0,52,0.00,,,0.00,WUHU216DAVISVP2,2013-07-24 00:42:00,
2013-07-23 19:47:00,71.2,53.3,29.98,NNE,21,0.0,0.0,53,0.00,,,0.00,WUHU216DAVISVP2,2013-07-24 00:47:00,
2013-07-23 19:52:00,71.0,53.1,29.98,NNE,15,0.0,5.0,53,0.00,,,0.00,WUHU216DAVISVP2,2013-07-24 00:52:00,
2013-07-23 19:57:00,70.8,53.5,29.98,NNE,13,0.0,5.0,54,0.00,,,0.00,WUHU216DAVISVP2,2013-07-24 00:57:00,
2013-07-23 20:02:00,70.8,53.5,29.98,NNE,15,0.0,3.0,54,0.00,,,0.00,WUHU216DAVISVP2,2013-07-24 01:02:00,
2013-07-23 20:07:00,70.5,53.2,29.98,NNE,17,0.0,1.0,54,0.00,,,0.00,WUHU216DAVISVP2,2013-07-24 01:07:00,
2013-07-23 20:12:00,70.3,53.0,29.98,NNE,13,0.0,2.0,54,0.00,,,0.00,WUHU216DAVISVP2,2013-07-24 01:12:00,
2013-07-23 20:17:00,70.2,52.9,29.98,NNE,16,0.0,2.0,54,0.00,,,0.00,WUHU216DAVISVP2,2013-07-24 01:17:00,
2013-07-23 20:23:00,70.2,52.9,29.98,NNE,16,0.0,3.0,54,0.00,,,0.00,WUHU216DAVISVP2,2013-07-24 01:23:00,
2013-07-23 20:28:00,70.2,52.4,29.99,NNE,17,0.0,3.0,53,0.00,,,0.00,WUHU216DAVISVP2,2013-07-24 01:28:00,
2013-07-23 20:33:00,70.1,52.3,29.99,NNE,14,0.0,5.0,53,0.00,,,0.00,WUHU216DAVISVP2,2013-07-24 01:33:00,
2013-07-23 20:38:00,69.9,52.1,29.99,NNE,14,0.0,5.0,53,0.00,,,0.00,WUHU216DAVISVP2,2013-07-24 01:38:00,
2013-07-23 20:43:00,69.8,52.5,29.99,NNE,19,0.0,0.0,54,0.00,,,0.00,WUHU216DAVISVP2,2013-07-24 01:43:00,
2013-07-23 20:49:00,69.7,52.9,29.99,NNE,19,0.0,0.0,55,0.00,,,0.00,WUHU216DAVISVP2,2013-07-24 01:49:00,
2013-07-23 20:54:00,69.5,52.8,29.99,NNE,19,0.0,0.0,55,0.00,,,0.00,WUHU216DAVISVP2,2013-07-24 01:54:00,
2013-07-23 20:59:00,69.4,53.2,29.99,NNE,19,0.0,0.0,56,0.00,,,0.00,WUHU216DAVISVP2,2013-07-24 01:59:00,
2013-07-23 21:04:00,69.2,53.0,29.99,NNE,19,0.0,0.0,56,0.00,,,0.00,WUHU216DAVISVP2,2013-07-24 02:04:00,
2013-07-23 21:09:00,69.0,52.8,29.99,NNE,19,0.0,0.0,56,0.00,,,0.00,WUHU216DAVISVP2,2013-07-24 02:09:00,
2013-07-23 21:15:00,68.8,53.1,29.99,NNE,18,0.0,0.0,57,0.00,,,0.00,WUHU216DAVISVP2,2013-07-24 02:15:00,
2013-07-23 21:20:00,68.6,53.4,29.99,NNE,18,0.0,0.0,58,0.00,,,0.00,WUHU216DAVISVP2,2013-07-24 02:20:00,
2013-07-23 21:25:00,68.4,53.2,29.99,NNE,18,0.0,0.0,58,0.00,,,0.00,WUHU216DAVISVP2,2013-07-24 02:25:00,
2013-07-23 21:30:00,68.2,53.0,29.99,NNE,18,0.0,0.0,58,0.00,,,0.00,WUHU216DAVISVP2,2013-07-24 02:30:00,
2013-07-23 21:35:00,68.0,53.3,29.99,NNE,18,0.0,0.0,59,0.00,,,0.00,WUHU216DAVISVP2,2013-07-24 02:35:00,
2013-07-23 21:41:00,67.8,53.1,29.99,NNE,18,0.0,0.0,59,0.00,,,0.00,WUHU216DAVISVP2,2013-07-24 02:41:00,
2013-07-23 21:46:00,67.5,52.8,30.00,NNE,19,0.0,0.0,59,0.00,,,0.00,WUHU216DAVISVP2,2013-07-24 02:46:00,
2013-07-23 21:51:00,67.2,53.0,29.99,NNE,18,0.0,0.0,60,0.00,,,0.00,WUHU216DAVISVP2,2013-07-24 02:51:00,
2013-07-23 21:56:00,67.0,52.8,29.99,NNE,18,0.0,0.0,60,0.00,,,0.00,WUHU216DAVISVP2,2013-07-24 02:56:00,
2013-07-23 22:01:00,66.7,52.5,30.00,NNE,18,0.0,0.0,60,0.00,,,0.00,WUHU216DAVISVP2,2013-07-24 03:01:00,
2013-07-23 22:06:00,66.4,52.7,30.00,NNE,18,0.0,0.0,61,0.00,,,0.00,WUHU216DAVISVP2,2013-07-24 03:06:00,
2013-07-23 22:11:00,66.1,52.4,30.00,NNE,18,0.0,0.0,61,0.00,,,0.00,WUHU216DAVISVP2,2013-07-24 03:11:00,
2013-07-23 22:16:00,65.8,52.6,30.00,NNE,18,0.0,0.0,62,0.00,,,0.00,WUHU216DAVISVP2,2013-07-24 03:16:00,
2013-07-23 22:21:00,65.6,52.4,30.00,NNE,18,0.0,0.0,62,0.00,,,0.00,WUHU216DAVISVP2,2013-07-24 03:21:00,
2013-07-23 22:26:00,65.4,52.2,30.00,NNE,18,0.0,0.0,62,0.00,,,0.00,WUHU216DAVISVP2,2013-07-24 03:26:00,
2013-07-23 22:32:00,65.4,52.2,30.00,NNE,18,0.0,0.0,62,0.00,,,0.00,WUHU216DAVISVP2,2013-07-24 03:32:00,
2013-07-23 22:37:00,65.5,52.3,30.00,NNE,18,0.0,0.0,62,0.00,,,0.00,WUHU216DAVISVP2,2013-07-24 03:37:00,
2013-07-23 22:42:00,65.9,52.2,30.00,NNE,18,0.0,0.0,61,0.00,,,0.00,WUHU216DAVISVP2,2013-07-24 03:42:00,
2013-07-23 22:48:00,66.1,52.4,30.00,NNE,18,0.0,0.0,61,0.00,,,0.00,WUHU216DAVISVP2,2013-07-24 03:48:00,
2013-07-23 22:53:00,66.4,52.3,30.00,NNE,18,0.0,0.0,60,0.00,,,0.00,WUHU216DAVISVP2,2013-07-24 03:53:00,
2013-07-23 22:58:00,66.6,52.4,29.99,NNE,18,0.0,0.0,60,0.00,,,0.00,WUHU216DAVISVP2,2013-07-24 03:58:00,
2013-07-23 23:01:00,66.6,52.0,30.00,NNE,18,0.0,0.0,59,0.00,,,0.00,WUHU216DAVISVP2,2013-07-24 04:01:00,
2013-07-23 23:06:00,66.6,52.0,30.00,NNE,18,0.0,0.0,59,0.00,,,0.00,WUHU216DAVISVP2,2013-07-24 04:06:00,
2013-07-23 23:11:00,66.5,51.9,30.00,NNE,18,0.0,0.0,59,0.00,,,0.00,WUHU216DAVISVP2,2013-07-24 04:11:00,
2013-07-23 23:16:00,66.4,51.8,30.00,NNE,18,0.0,0.0,59,0.00,,,0.00,WUHU216DAVISVP2,2013-07-24 04:16:00,
2013-07-23 23:21:00,66.2,51.6,30.00,NNE,18,0.0,0.0,59,0.00,,,0.00,WUHU216DAVISVP2,2013-07-24 04:21:00,
2013-07-23 23:26:00,66.1,52.0,30.00,NNE,18,0.0,0.0,60,0.00,,,0.00,WUHU216DAVISVP2,2013-07-24 04:26:00,
2013-07-23 23:31:00,66.0,51.9,30.00,NNE,18,0.0,0.0,60,0.00,,,0.00,WUHU216DAVISVP2,2013-07-24 04:31:00,
2013-07-23 23:36:00,65.9,52.2,30.00,NNE,18,0.0,0.0,61,0.00,,,0.00,WUHU216DAVISVP2,2013-07-24 04:36:00,
2013-07-23 23:41:00,65.9,52.2,30.00,NNE,18,0.0,0.0,61,0.00,,,0.00,WUHU216DAVISVP2,2013-07-24 04:41:00,
2013-07-23 23:46:00,65.8,52.1,30.00,NNE,18,0.0,0.0,61,0.00,,,0.00,WUHU216DAVISVP2,2013-07-24 04:46:00,
2013-07-23 23:51:00,65.8,52.1,30.00,NNE,18,0.0,0.0,61,0.00,,,0.00,WUHU216DAVISVP2,2013-07-24 04:51:00,
2013-07-23 23:56:00,65.8,52.1,30.00,NNE,18,0.0,0.0,61,0.00,,,0.00,WUHU216DAVISVP2,2013-07-24 04:56:00,